AirNav  
 
 975 users online  

F41 Ennis Municipal Airport
Ennis, Texas, USA

GOING TO ENNIS?


FAA INFORMATION EFFECTIVE 25 MARCH 2021

Location

FAA Identifier: F41
Lat/Long: 32-19-46.9000N 096-39-50.0000W
32-19.781667N 096-39.833333W
32.3296944,-96.6638889
(estimated)
Elevation: 500.1 ft. / 152.4 m (surveyed)
Variation: 03E (2020)
From city: 2 miles W of ENNIS, TX
Time zone: UTC -5 (UTC -6 during Standard Time)
Zip code: 75119

Airport Operations

Airport use: Open to the public
Control tower: no
ARTCC: FORT WORTH CENTER
FSS: FORT WORTH FLIGHT SERVICE STATION
NOTAMs facility: FTW (NOTAM-D service available)
Attendance: MON-FRI 0800-1700
Wind indicator: lighted
Segmented circle: yes
Lights: ACTVT REIL RWY 16 & 34; PAPI RWY 16 & 34; MIRL RWY 16/34, PRESET LOW INTST - CTAF.
Beacon: white-green (lighted land airport)
Operates sunset to sunrise.

Airport Communications

CTAF: 122.9
REGIONAL APPROACH: 125.2
REGIONAL DEPARTURE: 125.2
EESAT STAR: 125.025 125.275
FINGR STAR: 124.3 125.275
GREGS STAR: 118.1
JFRYE STAR: 118.1
KNEAD STAR: 135.975
LOADS STAR: 125.025 125.275
SLANT STAR: 125.025 125.275
SWVAY STAR: 135.975
YEAGR STAR: 125.025 125.275
WX AWOS-3 at JWY (15 nm NW): 119.575 (972-937-4747)
WX AWOS-3 at LNC (15 nm N): 118.975 (972-227-0471)

Nearby radio navigation aids

VOR radial/distance  VOR name  Freq  Var
CQYr285/24.2CEDAR CREEK VORTAC114.8006E
CVEr154/35.8COWBOY VOR/DME116.2006E
TTTr144/37.6MAVERICK VOR/DME113.1006E

 
NDB name  Hdg/Dist  Freq  Var  ID
POWELL317/20.034406ECGQ -.-. --. --.-
CORSICANA317/22.739606ECRS -.-. .-. ...
MESQUITE190/29.624803EPQF .--. --.- ..-.
TRAVIS213/33.326006EAVZ .- ...- --..
PYRAMID314/36.741806EPYF .--. -.-- ..-.
CROSSROADS286/39.321508ECSZ -.-. ... --..

Airport Services

Fuel available: 100LL JET-A
FUEL AVBL 24 HRS WITH MAJOR CREDIT CARD.
Parking: tiedowns
Airframe service: MAJOR
Powerplant service: MAJOR
Bottled oxygen: NONE
Bulk oxygen: NONE

Runway Information

Runway 16/34

Dimensions: 3999 x 50 ft. / 1219 x 15 m
Surface: asphalt, in good condition
Weight bearing capacity: 
Single wheel: 18.0
Runway edge lights: medium intensity
RUNWAY 16  RUNWAY 34
Latitude: 32-20.094650N32-19.469283N
Longitude: 096-39.957317W096-39.710687W
Elevation: 500.1 ft.477.0 ft.
Traffic pattern: rightleft
Runway heading: 158 magnetic, 161 true338 magnetic, 341 true
Displaced threshold: no255 ft.
Markings: basic, in good conditionbasic, in good condition
Visual slope indicator: 2-light PAPI on left (3.00 degrees glide path)2-light PAPI on left (3.00 degrees glide path)
Runway end identifier lights: yesyes
Touchdown point: yes, no lightsyes, no lights
Obstructions: 5 ft. gnd, 201 ft. from runway, 86 ft. left of centerline
RISING GROUND 0 TO 5 FT FROM 0-199 FT DSTC, 88 FT L.
27 ft. pline, marked, 1125 ft. from runway, 34:1 slope to clear
APCH SLOPE 50:1 AT DSPLCD THLD.

Airport Ownership and Management from official FAA records

Ownership: Publicly-owned
Owner: CITY OF ENNIS
PO BOX 220
ENNIS, TX 75120-0220
Phone 972-875-1234
Manager: JERRY HAMMOCK
3002 W ENNIS AVE
ENNIS, TX 75119
Phone (972) 875-4279
EMERGENCY PH: 972-875-4462-ENNIS POLICE DEPT.

Airport Operational Statistics

Aircraft based on the field: 10
Single engine airplanes: 9
Multi engine airplanes: 1
    
Aircraft operations: avg 48/week *
71% local general aviation
24% transient general aviation
5% military
* for 12-month period ending 31 December 2018

Additional Remarks

BIRDS ON AND INVOF ARPT.
FOR CD CTC REGIONAL APCH AT 972-615-2799.

Instrument Procedures

NOTE: All procedures below are presented as PDF files. If you need a reader for these files, you should download the free Adobe Reader.

NOT FOR NAVIGATION. Please procure official charts for flight.
FAA instrument procedures published for use from 25 March 2021 at 0901Z to 22 April 2021 at 0900z.

 
STARs - Standard Terminal Arrivals
FINGR SEVEN   2 pages: [1] [2] (522KB)
GREGS NINE   2 pages: [1] [2] (609KB)
JFRYE THREE (RNAV)   download (275KB)
SLANT THREE (RNAV)   download (263KB)
SWVAY FOUR (RNAV)   download (257KB)
 
IAPs - Instrument Approach Procedures
VOR/DME-A   download (194KB)
 
Departure Procedures
GARLAND NINE   2 pages: [1] [2] (344KB)
KINGDOM EIGHT   2 pages: [1] [2] (375KB)
KUSSO SEVEN (RNAV)   2 pages: [1] [2] (318KB)
SWABR SEVEN (RNAV)   2 pages: [1] [2] (314KB)
NOTE: Special Take-Off Minimums/Departure Procedures apply   download (326KB)

Other nearby airports with instrument procedures:

KJWY - Mid-Way Regional Airport (15 nm NW)
KLNC - Lancaster Regional Airport (15 nm N)
KCRS - C David Campbell Field-Corsicana Municipal Airport (23 nm SE)
KRBD - DallasExecutive Airport (24 nm NW)
KHQZ - Mesquite Metro Airport (26 nm N)
 
Loc | Ops | Rwys | IFR | FBO | Links
Com | Nav | Svcs | Stats | Notes

City of Fort Worth
 
Area around F41 (Ennis Municipal Airport)
 
Road maps at: MapQuest Bing Google
 
Aerial photo
WARNING: Photo may not be current or correct
Aerial photo of F41 (Ennis Municipal Airport)
Photo by Paul Reinders
Photo taken 07-Jan-2007

Do you have a better or more recent aerial photo of Ennis Municipal Airport that you would like to share? If so, please send us your photo.

 
Sectional chart

 
Airport distance calculator
Flying to Ennis Municipal Airport? Find the distance to fly.

From to F41

Sunrise and sunset
Times for 15-Apr-2021
 Local
(UTC-5)
 Zulu
(UTC)
Morning civil twilight06:3311:33
Sunrise06:5811:58
Sunset19:5500:55
Evening civil twilight20:2001:20

Current date and time
Zulu (UTC)  15-Apr-2021 12:45:18
Local (UTC-5)  15-Apr-2021 07:45:18
 
METAR
KJWY 
15nm NW 
151235Z AUTO 06006KT 10SM OVC007 13/13 A3008 RMK AO2 T01310125
KLNC 
15nm N 
151235Z AUTO 06008KT 10SM OVC007 13/12 A3008 RMK AO2 T01300115
KCRS 
22nm SE 
151153Z AUTO 06006KT 10SM OVC011 15/13 A3004 RMK AO2 SLP170 60000 T01500128 10167 20144 53008
KRBD 
24nm NW 
151153Z 06009G18KT 10SM OVC009 14/11 A3004 RMK AO2 SLP169 60003 70003 T01390111 10172 20139 53008
KHQZ 
26nm N 
151150Z 03007KT 10SM OVC010 12/11 A3006
KINJ 
26nm SW 
151235Z AUTO 04007KT 10SM OVC007 15/15 A3003 RMK AO2 T01450145
TAF
KGKY 
30nm NW 
151140Z 1512/1612 06009KT P6SM OVC007 TEMPO 1512/1514 BKN008 FM151800 07013KT P6SM OVC022 FM152100 09012KT P6SM VCTS OVC021CB TEMPO 1521/1524 5SM -TSRA BKN025CB FM160200 11010KT P6SM OVC015 FM160800 10010KT P6SM VCSH OVC012
KDAL 
33nm N 
151140Z 1512/1612 06008KT P6SM OVC013 TEMPO 1512/1514 BKN008 FM151800 08012KT P6SM OVC025 FM152100 09012KT P6SM VCTS OVC024CB TEMPO 1521/1524 5SM -TSRA BKN025CB FM160200 10010KT P6SM OVC014 FM160700 11010KT P6SM VCSH OVC011
NOTAMs
Click for the latest NOTAMs
NOTAMs are issued by the DoD/FAA and will open in a separate window not controlled by AirNav.

 

 
 

FBO, Fuel Providers, and Aircraft Ground Support

  
 Business Name 
 
 Contact 
 
 Services / Description 
 
Fuel Prices
 
Comments
  
Hammock Aviation Services 972-875-4279
no information available

If you are affiliated with Hammock Aviation Services and would like to show here your services, contact info, web link, logo, and more, click here
100LL Jet A
SS $3.45 $2.88 
 Updated 03-Mar-2021
 
   write
SS=Self service
Update Fuel Prices
 

Would you like to see your business listed on this page?

 If your business provides an interesting product or service to pilots, flight crews, aircraft, or users of the Ennis Municipal Airport, you should consider listing it here.  To start the listing process, click on the button below
 
Add a business
 

Other Pages about Ennis Municipal Airport

www.ennis-texas.com/...
 
Update a link
 
Copyright © AirNav, LLC. All rights reserved. Privacy Policy  Contact